Racecast

Rock Canyon Invitational

Rock Canyon Invitational Course · 5000m · Girls · Junior Varsity · 2018-09-15 · CO

Course difficulty: +3.0%i

Race-day weather: 77°F · wind 6 mph · humidity 16%

View full meet →

Team scores

Place Team Points 12345 67
1 Mountain Vista (CO) 48 2 6 11 13 16 20 25
2 Rock Canyon (CO) 58 7 8 12 14 17 22 37
3 Boulder (CO) 82 3 4 18 28 29 31 33
4 Heritage (CO) 131 10 19 27 35 40 47 50
5 Colorado Springs Christian (CO) 160 1 5 23 54 77 78 82
6 Columbine (CO) 182 24 32 39 43 44 45 56
7 Regis Jesuit (CO) 189 15 30 42 49 53 61 71
8 Monarch (CO) 205 9 38 46 55 57 64 86
9 Valor Christian (CO) 232 26 34 36 66 70 72 75
10 Rampart (CO) 298 41 58 60 65 74 92 100
11 Legend (CO) 318 51 52 63 73 79 80 81
12 Castle View (CO) 380 48 68 69 91 104 126
13 Ralston Valley (CO) 449 76 83 87 101 102 115 120
14 Widefield (CO) 452 59 67 99 111 116 124 128
15 Skyview (CO) 453 84 89 90 94 96 114 117
16 STEM Highlands Ranch (CO) 475 21 95 107 125 127
17 Prairie View (CO) 487 88 93 98 103 105 109 110
18 Highlands Ranch (CO) 515 85 97 106 108 119 121 123
19 Palmer (CO) 527 62 112 113 118 122

As scored by the meet.

Results

Place Athlete Grade School Time Ratingi Points
1 Rachel Ingram 12 Colorado Springs Christian (CO) 1 19:45.3 131.1 1
2 Anna Duffy 10 Mountain Vista (CO) 1 21:28.4 PR 120.6 2
3 Lilly Chesher 11 Boulder (CO) 1 21:35.3 PR 119.9 3
4 Arianna McCue 12 Boulder (CO) 2 21:41.2 SR 119.4 4
5 Elle Stevens 9 Colorado Springs Christian (CO) 2 21:53.4 118.3 5
6 Jordan Gossett 10 Mountain Vista (CO) 2 21:57.3 117.9 6
7 Audrey Corrado 11 Rock Canyon (CO) 1 22:05.9 117.2 7
8 Madeline Snook 10 Rock Canyon (CO) 2 22:26.2 PR 115.4 8
9 Ali Brzostowicz 11 Monarch (CO) 1 22:34.5 SR 114.7 9
10 Sofie Hill 9 Heritage (CO) 1 22:45.5 PR 113.8 10
11 Lanie Lopez 11 Mountain Vista (CO) 3 22:47.5 113.6 11
12 Julia Ross 11 Rock Canyon (CO) 3 22:51 SR 113.3 12
13 Anna Lindstrom 11 Mountain Vista (CO) 4 22:54.6 113.0 13
14 Amanda Bermingham 9 Rock Canyon (CO) 4 22:54.8 113.0 14
15 Shalika deVireddy 12 Regis Jesuit (CO) 1 22:56 SR 112.9 15
16 Kyla Anderson 10 Mountain Vista (CO) 5 22:56.1 112.9 16
17 Jordan Roeser 11 Rock Canyon (CO) 5 23:02.4 112.4 17
18 Hobson Makenna 12 Boulder (CO) 3 23:03 SR 112.3 18
19 Kari Reuter 12 Heritage (CO) 2 23:09.7 111.8 19
20 Morgan Soares 10 Mountain Vista (CO) 6 23:12.4 111.6 20
21 Sophia Watts 10 STEM Highlands Ranch (CO) 1 23:16.7 111.2 21
22 Aspen Vanramshorst 9 Rock Canyon (CO) 6 23:17.4 111.2 22
23 Isabel Case 9 Colorado Springs Christian (CO) 3 23:20.5 110.9 23
24 Eve Allen 10 Columbine (CO) 1 23:20.7 110.9 24
25 Harper Boggs 11 Mountain Vista (CO) 7 23:22.9 110.7 25
26 Megan Suedkamp 10 Valor Christian (CO) 1 23:23.3 110.7 26
27 Lauren Hoodmaker 12 Heritage (CO) 3 23:25.5 110.5 27
28 Grace Fink 10 Boulder (CO) 4 23:26.6 SR 110.4 28
29 Molly Leader 10 Boulder (CO) 5 23:28.6 SR 110.3 29
30 Sophia Tognetti 9 Regis Jesuit (CO) 2 23:44.6 109.0 30
31 Ava Anglin 11 Boulder (CO) 6 23:53.3 PR 108.4 31
32 Emma Maxwell 12 Columbine (CO) 2 23:53.7 108.3 32
33 Theresa Harbert 11 Mountain Vista (CO) 8 23:55.2 108.2
34 Clemence Chanus 11 Boulder (CO) 7 23:57 PR 108.1 33
35 Kayla Bowman 11 Mountain Vista (CO) 9 23:58 108.0
36 Ellie Cimbura 10 Valor Christian (CO) 2 23:58.6 108.0 34
37 Leah Maloney 9 Heritage (CO) 4 23:59.9 107.9 35
38 Lindsay Cook 9 Boulder (CO) 8 24:03.9 107.6
39 Megan Grissom 12 Valor Christian (CO) 3 24:05.2 107.5 36
40 Eileen Kennedy 10 Rock Canyon (CO) 7 24:07.2 PR 107.3 37
41 Allie Bergland 11 Monarch (CO) 2 24:07.8 SR 107.3 38
42 Abigail Jensen 12 Mountain Vista (CO) 10 24:08.5 107.2
43 Taryn Elsner 12 Columbine (CO) 3 24:09.1 107.2 39
44 Grace Schwab 11 Boulder (CO) 9 24:09.4 107.2
45 Wylie McBride 9 Heritage (CO) 5 24:12.9 106.9 40
46 Emma Barker 10 Rampart (CO) 1 24:22 106.2 41
47 Ellena Harper 9 Mountain Vista (CO) 11 24:22.3 PR 106.2
48 Hannah Willer 9 Regis Jesuit (CO) 3 24:24.1 106.1 42
49 Ava Davis 9 Mountain Vista (CO) 12 24:24.8 PR 106.0
50 Brianna Minifie 9 Mountain Vista (CO) 13 24:25.8 PR 106.0
51 Sophie Shadid 10 Rock Canyon (CO) 8 24:25.9 106.0
52 Raquelle Soriano 9 Columbine (CO) 4 24:26.7 PR 105.9 43
53 Annie Miller 9 Columbine (CO) 5 24:26.8 105.9 44
54 Carter Henry 10 Mountain Vista (CO) 14 24:27.2 105.9
55 Tori Amsberry 10 Columbine (CO) 6 24:29.7 105.7 45
56 Olivia Gibson 10 Rock Canyon (CO) 9 24:32 SR 105.5
57 Emma Lookner 11 Monarch (CO) 3 24:36 105.2 46
58 Emma Fink 9 Heritage (CO) 6 24:36.9 105.2 47
59 Nicole Neisler 10 Mountain Vista (CO) 15 24:38.4 PR 105.1
60 Alexandra Moldowan 11 Castle View (CO) 1 24:38.6 105.1 48
61 Ella Blankinship 10 Boulder (CO) 10 24:39.1 PR 105.0
62 Deanna Landry 9 Regis Jesuit (CO) 4 24:41.8 PR 104.8 49
63 Lauryn Wojcik 9 Heritage (CO) 7 24:43.3 PR 104.7 50
64 Erin Case 12 Legend (CO) 1 24:43.5 PR 104.7 51
65 Courtlyn Johnson 9 Legend (CO) 2 24:44.3 104.7 52
66 Paige Augustine 11 Regis Jesuit (CO) 5 24:46.1 SR 104.5 53
67 Anna Newman 11 Colorado Springs Christian (CO) 4 24:47.5 104.4 54
68 Bailey Wallace 11 Monarch (CO) 4 24:48.8 104.3 55
69 Sara Brainard 10 Columbine (CO) 7 24:49.9 SR 104.3 56
70 Amelia Kennie 11 Monarch (CO) 5 24:51.3 PR 104.2 57
71 Abby Bolt 10 Rampart (CO) 2 24:51.5 104.2 58
72 Vadianna Martinez 11 Widefield (CO) 1 24:51.6 PR 104.1 59
73 Cadence Corby 9 Rampart (CO) 3 24:52.7 104.1 60
74 Ryan Bailey 12 Rock Canyon (CO) 10 24:53.3 SR 104.0
75 Annie Oberlies 11 Regis Jesuit (CO) 6 24:54.5 SR 103.9 61
76 Katherine Schwab 9 Boulder (CO) 11 24:55.3 103.9
77 Madeleine Palmgren 11 Mountain Vista (CO) 16 24:59.6 103.6
78 Ellie Schueler 10 Palmer (AK) 1 25:00 SR 103.6 62
79 Madison Miller 10 Legend (CO) 3 25:01.4 PR 103.5 63
80 Celia Webster 9 Monarch (CO) 6 25:01.8 PR 103.4 64
81 Hailey Tharp 10 Heritage (CO) 8 25:02.4 SR 103.4
82 Ashley Judson 10 Rampart (CO) 4 25:03.4 103.3 65
83 Dylan Daniels 9 Valor Christian (CO) 4 25:08.4 PR 103.0 66
84 Ally Payne 12 Heritage (CO) 9 25:11.2 102.8
85 Quincy Baum 11 Columbine (CO) 8 25:11.5 102.8
86 Kira Hartz 11 Rock Canyon (CO) 11 25:11.7 102.8
87 Neve Schneider 10 Columbine (CO) 9 25:14.3 102.6
88 Taeya Andrews 10 Widefield (CO) 2 25:14.4 SR 102.6 67
89 Esabella Fleming 9 Castle View (CO) 2 25:16.8 102.4 68
90 Katie Sarko 9 Heritage (CO) 10 25:17.4 102.4
91 Kate Skilbred 10 Boulder (CO) 12 25:20 PR 102.2
92 Joy Wakimura 9 Mountain Vista (CO) 17 25:25.6 101.8
93 Kiera Greven 9 Castle View (CO) 3 25:26.9 101.7 69
94 Mollie Porch 9 Valor Christian (CO) 5 25:27.5 PR 101.7 70
95 Paige Zilvitis 9 Regis Jesuit (CO) 7 25:28.5 101.6 71
96 Tania St John 9 Heritage (CO) 11 25:29.6 101.5
97 Taylor Hanson 9 Heritage (CO) 12 25:33.3 101.3
98 Hanna Roeser 10 Rock Canyon (CO) 12 25:34 SR 101.3
99 Sophia Davey 9 Boulder (CO) 13 25:34.3 101.2
100 Lauren KIM 10 Valor Christian (CO) 6 25:35.4 PR 101.2 72
101 Alexa Bauer 11 Rock Canyon (CO) 13 25:36.6 101.1
102 Makayla Blair 11 Legend (CO) 4 25:36.8 SR 101.1 73
103 Alana Hicks 11 Mountain Vista (CO) 18 25:37.1 101.1
104 Andrea Best 9 Mountain Vista (CO) 19 25:39.2 PR 100.9
105 Mary Richardson 11 Rampart (CO) 5 25:39.9 100.9 74
106 Morgan Croshal 10 Valor Christian (CO) 7 25:40.1 SR 100.9 75
107 Sarah Faestel 9 Regis Jesuit (CO) 8 25:41.3 PR 100.8
108 Madelynne Burgoyne 10 Mountain Vista (CO) 20 25:43.8 SR 100.6
109 Arden Harja 9 Heritage (CO) 13 25:44.8 PR 100.5
110 Alana Neylon 11 Regis Jesuit (CO) 9 25:46.6 100.4
111 Nina Pahs 11 Mountain Vista (CO) 21 25:46.8 100.4
112 Jessie Skidmore 9 Ralston Valley (CO) 1 25:46.9 PR 100.4 76
113 Emma Eng 9 Colorado Springs Christian (CO) 5 25:52.9 100.0 77
114 Raina Lee 11 Heritage (CO) 14 25:53.5 100.0
115 Maddison Bowman 11 Colorado Springs Christian (CO) 6 25:54.2 100.0 78
116 Olivia Walton 10 Mountain Vista (CO) 22 25:57.5 99.7
117 Olivia Larsen 9 Legend (CO) 5 26:05.1 99.2 79
118 Maya Stroman 9 Legend (CO) 6 26:09.1 PR 99.0 80
119 Adrienne Harnum 10 Columbine (CO) 10 26:12 PR 98.8
120 Breanna Dickman 9 Legend (CO) 7 26:13.2 PR 98.7 81
121 Katie Christoffersen 10 Colorado Springs Christian (CO) 7 26:15.9 98.6 82
122 Abbie Shields 9 Legend (CO) 8 26:16.8 98.5
123 Giesen Melissa 9 Heritage (CO) 15 26:19.4 98.3
124 Sophia Dicosola 9 Regis Jesuit (CO) 10 26:20.4 98.3
125 Brynna Dennehy 9 Ralston Valley (CO) 2 26:22.9 98.1 83
126 Kristen Thomas 9 Heritage (CO) 16 26:27.1 97.9
127 Kinley Hartz 9 Rock Canyon (CO) 14 26:27.5 97.8
128 Sierra Taylor 9 Mountain Vista (CO) 23 26:28.9 PR 97.8
129 Caitlin Mortimer 9 Legend (CO) 9 26:28.9 PR 97.8
130 Grace Keaney 9 Columbine (CO) 11 26:31 97.6
131 Fatima Flores 11 Skyview (WA) 1 26:31.1 97.6 84
132 Josephine Disbrow 9 Rock Canyon (CO) 15 26:39.7 97.1
133 Lilly Finnegan 11 Columbine (CO) 12 26:50.6 96.5
134 Giselle McCleerey 10 Legend (CO) 10 26:53.5 96.3
135 Stella Fitzgerald 10 Regis Jesuit (CO) 11 26:54.7 SR 96.2
136 Sarah Salcido 10 Highlands Ranch (CO) 1 27:01.9 95.8 85
137 Lindsey Horn 12 Columbine (CO) 13 27:02 SR 95.8
138 Jaime Zhang 10 Monarch (CO) 7 27:07.3 95.5 86
139 Sarah Kerrigan 9 Ralston Valley (CO) 3 27:07.9 PR 95.4 87
140 Sam Keenan 11 Monarch (CO) 8 27:10.7 95.3
141 Lydia Jimmerson 10 Prairie View (CO) 1 27:13.1 PR 95.1 88
142 Carolina Cruz 11 Skyview (WA) 2 27:14.4 PR 95.0 89
143 Caley Edwards 9 Mountain Vista (CO) 24 27:15.8 PR 95.0
144 Emma Davisson 9 Regis Jesuit (CO) 12 27:21.3 PR 94.6
145 Frida Hill 12 Regis Jesuit (CO) 13 27:22.5 94.6
146 Brooke Andel 11 Rock Canyon (CO) 16 27:23.8 94.5
147 Afton Tanner 12 Regis Jesuit (CO) 14 27:24.5 SR 94.5
148 Keegan Benningfield 9 Colorado Springs Christian (CO) 8 27:25.4 94.4
149 Evaline Bearce 11 Monarch (CO) 9 27:27.4 94.3
150 Liliana Paredes 12 Skyview (WA) 3 27:27.5 PR 94.3 90
151 Bella Fernandez-Wagner 10 Monarch (CO) 10 27:29.9 PR 94.2
152 Elisa Cardona 9 Gateway (WA) 1 27:32.2 PR 94.0
153 Samantha Ketter 11 Legend (CO) 11 27:33.4 94.0
154 Rebecca Guggenbach 11 Mountain Vista (CO) 25 27:35.3 93.8
155 Paulina Shiraishi 11 Regis Jesuit (CO) 15 27:35.8 93.8
156 Aimee Marshall 11 Legend (CO) 12 27:37.7 93.7
157 Natalie Dixon 10 Boulder (CO) 14 27:37.9 PR 93.7
158 Tori Parks 11 Colorado Springs Christian (CO) 9 27:38.2 93.7
159 Bailey Samuelson 11 Columbine (CO) 14 27:38.6 93.7
160 Grace Chambless 9 Mountain Vista (CO) 26 27:39.8 93.6
161 Ella Steinbach 10 Shining Mountain Waldorf (CO) 1 27:40.1 PR 93.6
162 Keegan Parish 11 Heritage (CO) 17 27:45.2 93.3
163 Sydney Hale 9 Legend (CO) 13 27:45.7 PR 93.3
164 Lauren Davis 11 Castle View (CO) 4 27:45.8 93.2 91
165 Mia Costa 12 Regis Jesuit (CO) 16 27:50.2 93.0
166 Lauren Egaas 10 Monarch (CO) 11 27:52.2 92.9
167 Mia Cordova 11 Columbine (CO) 15 27:52.3 92.9
168 Nicole Chung 9 Rampart (CO) 6 27:52.6 PR 92.9 92
169 Katie Roberts 11 Legend (CO) 14 27:57.5 92.6
170 Sophia Rotello 9 Valor Christian (CO) 8 27:57.7 PR 92.6
171 Morgan Barba 10 Prairie View (CO) 2 27:59.2 92.5 93
172 Ava Schneiderman 10 Rock Canyon (CO) 17 28:00.7 SR 92.4
173 Josie Billups 9 Valor Christian (CO) 9 28:00.9 PR 92.4
174 Abigial Durbin 10 Valor Christian (CO) 10 28:01.1 PR 92.4
175 Colleen Maersch 9 Legend (CO) 15 28:01.1 92.4
176 Reina Luevano 11 Skyview (WA) 4 28:03.1 92.3 94
177 Emma Slack 10 STEM Highlands Ranch (CO) 2 28:08.3 92.0 95
178 Lily Martin 12 Regis Jesuit (CO) 17 28:09.8 SR 91.9
179 Nahomi Rodriguez 12 Skyview (WA) 5 28:10.9 91.9 96
180 Chloe Atencio 11 Highlands Ranch (CO) 2 28:16.7 91.5 97
181 April Martus 9 Mountain Vista (CO) 27 28:17.8 91.5
182 Mary Sheehan 12 Columbine (CO) 16 28:22.6 SR 91.2
183 Audrey Kaufman 10 Boulder (CO) 15 28:25.4 91.1
184 Halle Powell 10 Prairie View (CO) 3 28:30.1 90.8 98
185 Indie Clements 11 Widefield (CO) 3 28:30.9 90.8 99
186 Ryann Kuosman 11 Legend (CO) 16 28:31.3 90.8
187 Emily Doyle 10 Legend (CO) 17 28:36.3 90.5
188 Amaneet Brar 10 Rampart (CO) 7 28:37.3 SR 90.5 100
189 Julia Cromer 9 Columbine (CO) 17 28:42.1 PR 90.2
190 Isabel Gottlieb 11 Ralston Valley (CO) 4 28:46.8 SR 90.0 101
191 Sadie Guerra 9 Ralston Valley (CO) 5 28:50.6 89.8 102
192 Izzi Manning 11 Shining Mountain Waldorf (CO) 2 28:53.3 89.6
193 Grace Anne Moye 12 Regis Jesuit (CO) 18 28:57.2 SR 89.4
194 Rebecca Ray 11 Columbine (CO) 18 29:00.4 89.2
195 Mardoce Dowling-Davis 10 Boulder (CO) 16 29:03.5 SR 89.1
196 Darby Brown 11 Regis Jesuit (CO) 19 29:06.3 PR 89.0
197 Leah Ortiz 11 Mountain Vista (CO) 28 29:06.3 89.0
198 Lauren VanDerSchouw 10 Rock Canyon (CO) 18 29:09.2 PR 88.8
199 Josephine Pavicich 10 Columbine (CO) 19 29:09.3 88.8
200 Jordan Laessig 10 Legend (CO) 18 29:17.2 88.4
201 Elaine Friday 12 Prairie View (CO) 4 29:17.4 PR 88.4 103
202 Katie Borget 12 Castle View (CO) 5 29:27.5 PR 87.9 104
203 Alysia Abbas 10 Prairie View (CO) 5 29:34.3 87.5 105
204 Crystal Wang 10 Colorado Springs Christian (CO) 10 29:37 PR 87.4
205 Madison Foster 10 Valor Christian (CO) 11 29:43.8 SR 87.1
206 Emily Fish 11 Highlands Ranch (CO) 3 29:45.1 87.0 106
207 Olivia Staab 9 STEM Highlands Ranch (CO) 3 29:48.1 86.9 107
208 Juliana Holmes 11 Mountain Vista (CO) 29 29:53 86.6
209 Ashley Urso 9 Valor Christian (CO) 12 29:54.1 PR 86.6
210 Kellie Canavan 11 Heritage (CO) 18 29:59.2 86.3
211 Caylin Sadler 9 Heritage (CO) 19 29:59.6 PR 86.3
212 Ana Lopez 11 Valor Christian (CO) 13 30:02.1 PR 86.2
213 Emma Kuvaas 11 Highlands Ranch (CO) 4 30:07.2 86.0 108
214 Julia Foley 12 Mountain Vista (CO) 30 30:16.2 SR 85.5
215 Kacie Cavanan 9 Heritage (CO) 20 30:16.7 PR 85.5
216 Abby Hart 12 Columbine (CO) 20 30:17.4 85.5
217 Emily Gagon 12 Prairie View (CO) 6 30:17.9 SR 85.5 109
218 Raegan Bair 10 Prairie View (CO) 7 30:20.1 SR 85.3 110
219 Kathryn White 10 Mountain Vista (CO) 31 30:22.4 SR 85.2
220 Haley Jimenez 9 Widefield (CO) 4 30:33.9 PR 84.7 111
221 Avy Chiluka 10 Rock Canyon (CO) 19 30:34.1 84.7
222 Blakeley Bennett 10 Palmer (AK) 2 30:37.1 PR 84.6 112
223 Risa Pollock 12 Rampart (CO) 8 30:41.8 SR 84.3
224 Bethany Duffy 12 Columbine (CO) 21 30:45.4 84.2
225 Delaney Marsden-Loetscher 11 Palmer (AK) 3 30:48.2 SR 84.0 113
226 Lucie Nguyen 11 Columbine (CO) 22 30:56.6 SR 83.7
227 Nathalia Ornelas 11 Skyview (WA) 6 31:10.9 83.0 114
228 Brooklyn Sadler 9 Heritage (CO) 21 31:19.4 PR 82.7
229 Kate Modler 10 Columbine (CO) 23 31:19.4 82.7
230 Rileigh Freeman 11 Prairie View (CO) 8 31:20.3 PR 82.6
231 Brenna Kilian 9 Columbine (CO) 24 31:22.9 PR 82.5
232 Mary Ellen Kerrigan 12 Ralston Valley (CO) 6 31:26.7 SR 82.3 115
233 Carolina Bertoletti 10 Heritage (CO) 22 31:27.4 PR 82.3
234 Chloe Nilson 11 Widefield (CO) 5 31:33.5 82.0 116
235 Chantal Pacheco 11 Skyview (WA) 7 31:43.8 PR 81.6 117
236 Autumn Barrett 9 Palmer (AK) 4 31:44.7 PR 81.5 118
237 Avery Moorhead 10 Highlands Ranch (CO) 5 31:45.9 81.5 119
238 Valeria Castenada 12 Gateway (WA) 2 31:49.4 81.3
239 Olivia Nelsen 9 Legend (CO) 19 31:56.3 PR 81.1
240 Karissa Ciaccio 10 Legend (CO) 20 32:01.7 80.8
241 Samantha Wood 9 Ralston Valley (CO) 7 32:02.4 PR 80.8 120
242 Danielle Cohen 10 Boulder (CO) 17 32:04.1 PR 80.7
243 Mia Gutierrez 10 Highlands Ranch (CO) 6 32:12.9 80.4 121
244 Megan Rogers 9 Valor Christian (CO) 14 32:15.9 PR 80.2
245 Bridget Langello 9 Ralston Valley (CO) 8 32:17 80.2
246 Analisa Acosta 10 Rampart (CO) 9 32:30.6 SR 79.6
247 Anya Smitb 12 Prairie View (CO) 9 32:42.6 79.2
248 Imani Sturm 9 Rampart (CO) 10 32:54.6 78.7
249 Karen Rodriguez Villa 10 Skyview (WA) 8 33:01.4 PR 78.4
250 Jennifer Balderrama 10 Skyview (WA) 9 33:34.7 77.1
251 Harper Espey 9 Columbine (CO) 25 33:47.2 76.6
252 Amber Mogg 9 Heritage (CO) 23 33:51 PR 76.5
253 Shay Kathiresh 11 Rock Canyon (CO) 20 34:06.8 75.9
254 Cameryn Smit 11 Palmer (AK) 5 34:34.6 PR 74.9 122
255 Addison Griffith 9 Heritage (CO) 24 35:49.7 72.3
256 Gabrielle Martinez 9 Heritage (CO) 25 36:09.4 PR 71.6
257 Marianne McConkie 9 Rampart (CO) 11 36:39.2 PR 70.6
258 Kailey Boyer 10 Skyview (WA) 10 37:42.3 68.7
259 Stacy Hubert 11 Highlands Ranch (CO) 7 37:52.5 68.4 123
260 Daedrian Walters 10 Widefield (CO) 6 39:00.9 66.4 124
261 Zoe Oberg 11 Highlands Ranch (CO) 8 39:02.8 SR 66.3
262 Saidee Alix Guerts 10 STEM Highlands Ranch (CO) 4 39:30.3 65.5 125
263 Izabella Kline 9 Castle View (CO) 6 39:41.1 PR 65.2 126
264 Veronica Martin 10 STEM Highlands Ranch (CO) 5 39:42.2 65.2 127
265 Colette Rocha 10 Widefield (CO) 7 41:05.9 PR 63.0 128
266 Gabriela Vargas 11 Skyview (WA) 11 42:24.8 61.0
267 Hallie Daspit 9 Legend (CO) 21 44:30.4 PR 58.2
Something wrong on this page? Report it →